Retour au catalogue

COSMOS 1275 DEB

ActifPO
NORAD 13473·DEBRIS·🇷🇺 Russia

Lancé Jun 4, 1981 depuis Plesetsk Cosmodrome

Loading…

Prochains Passages (prochaines 24 heures)

TLE

FraisSource: Space-Track

Époque: Sep 14, 2026, 06:34 UTC

1 13473U 81053FV  26257.27398735  .00001959  00000-0  80044-3 0  9994
2 13473  82.8286 260.3501 0043849 130.1403 242.9407 14.26362987260533

Suivez COSMOS 1275 DEB en temps réel avec AllMySat

Download on the App Store